DAL5076 KIAD-KJFK

Flight info

Callsign DAL5076
Flight time 0h 45m
Altitude 29000
Route JCOBY4 AGARD DONIL/N0383F170 T315 PANZE V44 CAMRN
Aircraft A320/M-SDE3FGHIRWY/LB1

Departure

Time 2026-05-05 00:46
Airport Washington Dulles International Airport (KIAD)

Arrival

Time 2026-05-05 01:32
Airport John F. Kennedy International Airport (KJFK)
Time Latitude Longitude Altitude Speed Heading
2026-05-05 00:27 38.94825 -77.45434 301 ft 0 kts 15°
2026-05-05 00:29 38.94824 -77.45434 300 ft 0 kts 15°
2026-05-05 00:37 38.94819 -77.45436 303 ft 4 kts 16°
2026-05-05 00:37 38.94795 -77.45445 304 ft 4 kts 13°
2026-05-05 00:38 38.94770 -77.45451 305 ft 4 kts 359°
2026-05-05 00:38 38.94746 -77.45445 300 ft 4 kts 327°
2026-05-05 00:38 38.94732 -77.45424 301 ft 3 kts 274°
2026-05-05 00:38 38.94731 -77.45419 301 ft 0 kts 270°
2026-05-05 00:41 38.94732 -77.45425 301 ft 3 kts 270°
2026-05-05 00:41 38.94732 -77.45502 300 ft 9 kts 270°
2026-05-05 00:41 38.94729 -77.45583 300 ft 9 kts 255°
2026-05-05 00:42 38.94668 -77.45609 302 ft 11 kts 178°
2026-05-05 00:42 38.94579 -77.45610 302 ft 16 kts 181°
2026-05-05 00:42 38.94445 -77.45613 300 ft 20 kts 181°
2026-05-05 00:42 38.94309 -77.45613 302 ft 19 kts 180°
2026-05-05 00:43 38.94172 -77.45615 302 ft 20 kts 180°
2026-05-05 00:43 38.94030 -77.45618 302 ft 21 kts 181°
2026-05-05 00:43 38.93887 -77.45618 302 ft 19 kts 179°
2026-05-05 00:43 38.93755 -77.45619 301 ft 18 kts 180°
2026-05-05 00:44 38.93679 -77.45577 301 ft 12 kts 132°
2026-05-05 00:44 38.93616 -77.45492 300 ft 13 kts 149°
2026-05-05 00:44 38.93529 -77.45524 300 ft 13 kts 202°
2026-05-05 00:44 38.93436 -77.45571 299 ft 16 kts 201°
2026-05-05 00:45 38.93375 -77.45669 302 ft 16 kts 288°
2026-05-05 00:45 38.93387 -77.45708 301 ft 0 kts 292°
2026-05-05 00:45 38.93400 -77.45748 300 ft 21 kts 292°
2026-05-05 00:45 38.93555 -77.46267 301 ft 99 kts 290°
2026-05-05 00:46 38.93874 -77.47340 303 ft 156 kts 291°
2026-05-05 00:46 38.94289 -77.48740 688 ft 172 kts 290°
2026-05-05 00:46 38.94739 -77.50245 1212 ft 190 kts 289°
2026-05-05 00:46 38.95245 -77.51913 1708 ft 211 kts 285°
2026-05-05 00:47 38.95800 -77.53782 2168 ft 234 kts 285°
2026-05-05 00:47 38.96363 -77.55821 2813 ft 251 kts 284°
2026-05-05 00:47 38.96913 -77.57976 2994 ft 253 kts 283°
2026-05-05 00:47 38.97419 -77.60120 3040 ft 251 kts 282°
2026-05-05 00:48 38.98156 -77.62130 3026 ft 257 kts 303°
2026-05-05 00:48 38.99593 -77.63534 3054 ft 269 kts 334°
2026-05-05 00:48 39.01469 -77.63876 3074 ft 280 kts
2026-05-05 00:48 39.03312 -77.63038 3277 ft 285 kts 33°
2026-05-05 00:49 39.04758 -77.61277 3836 ft 289 kts 51°
2026-05-05 00:49 39.05845 -77.59080 4551 ft 293 kts 66°
2026-05-05 00:49 39.06597 -77.56653 5340 ft 294 kts 69°
2026-05-05 00:49 39.07358 -77.54201 6164 ft 296 kts 66°
2026-05-05 00:50 39.08221 -77.51764 6942 ft 300 kts 63°
2026-05-05 00:50 39.09111 -77.49320 7690 ft 303 kts 62°
2026-05-05 00:50 39.10019 -77.46858 8403 ft 307 kts 61°
2026-05-05 00:50 39.10949 -77.44370 9079 ft 310 kts 60°
2026-05-05 00:51 39.11876 -77.41891 9749 ft 313 kts 60°
2026-05-05 00:51 39.12818 -77.39340 10377 ft 320 kts 60°
2026-05-05 00:51 39.13731 -77.36667 10995 ft 333 kts 65°
2026-05-05 00:51 39.14465 -77.33778 11666 ft 345 kts 71°
2026-05-05 00:52 39.15021 -77.30736 12360 ft 355 kts 76°
2026-05-05 00:52 39.15395 -77.27542 12999 ft 367 kts 84°
2026-05-05 00:52 39.15231 -77.24211 13495 ft 382 kts 102°
2026-05-05 00:52 39.14339 -77.20903 13846 ft 397 kts 113°
2026-05-05 00:53 39.13356 -77.17533 13967 ft 406 kts 107°
2026-05-05 00:53 39.12782 -77.13964 13955 ft 407 kts 96°
2026-05-05 00:53 39.12431 -77.10353 14013 ft 408 kts 97°
2026-05-05 00:53 39.12005 -77.06731 14167 ft 411 kts 99°
2026-05-05 00:54 39.11484 -77.03114 14934 ft 411 kts 101°
2026-05-05 00:54 39.10882 -76.99517 15689 ft 411 kts 106°
2026-05-05 00:54 39.09907 -76.96057 16453 ft 411 kts 114°
2026-05-05 00:54 39.08829 -76.92647 17205 ft 412 kts 113°
2026-05-05 00:55 39.07792 -76.89255 17968 ft 412 kts 112°
2026-05-05 00:55 39.06768 -76.85804 18652 ft 414 kts 112°
2026-05-05 00:55 39.05747 -76.82325 19240 ft 417 kts 112°
2026-05-05 00:55 39.04715 -76.78824 19804 ft 420 kts 112°
2026-05-05 00:56 39.03671 -76.75298 20352 ft 423 kts 112°
2026-05-05 00:56 39.02616 -76.71755 20886 ft 426 kts 112°
2026-05-05 00:56 39.01626 -76.68147 21400 ft 430 kts 106°
2026-05-05 00:56 39.01048 -76.64358 21894 ft 434 kts 96°
2026-05-05 00:57 39.00937 -76.60459 22391 ft 438 kts 89°
2026-05-05 00:57 39.00964 -76.56538 22876 ft 440 kts 89°
2026-05-05 00:57 39.00984 -76.52584 23351 ft 443 kts 90°
2026-05-05 00:57 39.00993 -76.48615 23736 ft 446 kts 90°
2026-05-05 00:58 39.00994 -76.44610 24132 ft 449 kts 90°
2026-05-05 00:58 39.01085 -76.40596 24504 ft 451 kts 84°
2026-05-05 00:58 39.01471 -76.36587 24882 ft 453 kts 82°
2026-05-05 00:58 39.01870 -76.32557 25261 ft 455 kts 82°
2026-05-05 00:59 39.02266 -76.28513 25626 ft 457 kts 82°
2026-05-05 00:59 39.02662 -76.24440 25981 ft 459 kts 82°
2026-05-05 00:59 39.03054 -76.20361 26330 ft 461 kts 82°
2026-05-05 00:59 39.03452 -76.16250 26673 ft 463 kts 82°
2026-05-05 01:00 39.03854 -76.12137 27011 ft 465 kts 82°
2026-05-05 01:00 39.04261 -76.07990 27332 ft 467 kts 82°
2026-05-05 01:00 39.04612 -76.03831 27643 ft 469 kts 84°
2026-05-05 01:00 39.04857 -75.99633 27944 ft 471 kts 86°
2026-05-05 01:01 39.05029 -75.95410 28231 ft 473 kts 86°
2026-05-05 01:01 39.05164 -75.91231 28501 ft 475 kts 87°
2026-05-05 01:01 39.05301 -75.86977 28758 ft 477 kts 86°
2026-05-05 01:01 39.05454 -75.82708 28906 ft 477 kts 86°
2026-05-05 01:02 39.05623 -75.78472 28927 ft 472 kts 86°
2026-05-05 01:02 39.05988 -75.70067 28925 ft 470 kts 86°
2026-05-05 01:03 39.06365 -75.61673 28928 ft 469 kts 86°
2026-05-05 01:03 39.06736 -75.53300 28921 ft 468 kts 86°
2026-05-05 01:04 39.07086 -75.44938 28915 ft 468 kts 86°
2026-05-05 01:04 39.08051 -75.32476 28914 ft 466 kts 73°
2026-05-05 01:05 39.10608 -75.24891 28923 ft 462 kts 56°
2026-05-05 01:05 39.14183 -75.18098 28926 ft 461 kts 54°
2026-05-05 01:06 39.17782 -75.11267 28938 ft 461 kts 54°
2026-05-05 01:06 39.21365 -75.04412 28937 ft 461 kts 54°
2026-05-05 01:07 39.24935 -74.97542 28937 ft 461 kts 54°
2026-05-05 01:07 39.28503 -74.90671 28940 ft 461 kts 54°
2026-05-05 01:08 39.32072 -74.83803 28940 ft 461 kts 54°
2026-05-05 01:08 39.35641 -74.76920 28953 ft 461 kts 54°
2026-05-05 01:09 39.39207 -74.70022 28957 ft 461 kts 54°
2026-05-05 01:09 39.42767 -74.63129 28952 ft 461 kts 54°
2026-05-05 01:10 39.46319 -74.56230 28955 ft 461 kts 54°
2026-05-05 01:10 39.49949 -74.49456 28957 ft 460 kts 52°
2026-05-05 01:11 39.53670 -74.42693 28970 ft 464 kts 52°
2026-05-05 01:11 39.57447 -74.35770 28973 ft 475 kts 53°
2026-05-05 01:12 39.61226 -74.28727 28973 ft 476 kts 53°
2026-05-05 01:12 39.63104 -74.25212 28560 ft 472 kts 53°
2026-05-05 01:12 39.64974 -74.21714 27211 ft 474 kts 53°
2026-05-05 01:13 39.66912 -74.18218 25789 ft 477 kts 48°
2026-05-05 01:13 39.69183 -74.15095 24434 ft 477 kts 39°
2026-05-05 01:13 39.71709 -74.12339 23509 ft 471 kts 37°
2026-05-05 01:13 39.74200 -74.09608 22474 ft 467 kts 37°
2026-05-05 01:14 39.76659 -74.06879 21523 ft 462 kts 38°
2026-05-05 01:14 39.79088 -74.04169 20631 ft 458 kts 37°
2026-05-05 01:14 39.81497 -74.01482 19773 ft 455 kts 37°
2026-05-05 01:14 39.83944 -73.98916 18964 ft 449 kts 32°
2026-05-05 01:15 39.86587 -73.96817 18184 ft 442 kts 25°
2026-05-05 01:15 39.89279 -73.94916 17321 ft 439 kts 25°
2026-05-05 01:15 39.91956 -73.93029 16540 ft 435 kts 25°
2026-05-05 01:15 39.94598 -73.91163 15812 ft 431 kts 25°
2026-05-05 01:16 39.97188 -73.89328 15115 ft 427 kts 25°
2026-05-05 01:16 39.99787 -73.87482 14430 ft 423 kts 25°
2026-05-05 01:16 40.02357 -73.85660 13776 ft 419 kts 25°
2026-05-05 01:16 40.04821 -73.83636 13209 ft 420 kts 36°
2026-05-05 01:17 40.07048 -73.81171 13029 ft 414 kts 37°
2026-05-05 01:17 40.09202 -73.78763 13060 ft 406 kts 37°
2026-05-05 01:17 40.11344 -73.76364 13058 ft 405 kts 37°
2026-05-05 01:17 40.13478 -73.73973 13060 ft 405 kts 37°
2026-05-05 01:18 40.15615 -73.71576 13058 ft 404 kts 37°
2026-05-05 01:18 40.17745 -73.69185 13055 ft 404 kts 37°
2026-05-05 01:18 40.19882 -73.66785 13055 ft 404 kts 37°
2026-05-05 01:18 40.22014 -73.64393 13053 ft 404 kts 37°
2026-05-05 01:19 40.24189 -73.62068 13058 ft 402 kts 31°
2026-05-05 01:19 40.26546 -73.60101 13054 ft 401 kts 28°
2026-05-05 01:19 40.28903 -73.58158 13049 ft 401 kts 28°
2026-05-05 01:19 40.31287 -73.56276 12872 ft 398 kts 24°
2026-05-05 01:20 40.33826 -73.54888 12615 ft 392 kts 13°
2026-05-05 01:20 40.36461 -73.54084 12355 ft 387 kts
2026-05-05 01:20 40.39100 -73.53454 12099 ft 385 kts
2026-05-05 01:20 40.41711 -73.52821 11532 ft 379 kts
2026-05-05 01:21 40.44289 -73.52190 10883 ft 375 kts
2026-05-05 01:21 40.46808 -73.51571 10656 ft 359 kts
2026-05-05 01:21 40.49205 -73.50977 10535 ft 342 kts
2026-05-05 01:21 40.51489 -73.50411 10413 ft 326 kts
2026-05-05 01:22 40.53682 -73.49869 9983 ft 321 kts
2026-05-05 01:22 40.55912 -73.49330 9383 ft 323 kts
2026-05-05 01:22 40.58089 -73.48802 8849 ft 320 kts
2026-05-05 01:22 40.60302 -73.48269 7791 ft 335 kts
2026-05-05 01:23 40.62671 -73.47699 6671 ft 349 kts
2026-05-05 01:23 40.65106 -73.47108 5434 ft 362 kts
2026-05-05 01:23 40.67585 -73.46488 4352 ft 371 kts 10°
2026-05-05 01:23 40.70011 -73.45286 3506 ft 373 kts 24°
2026-05-05 01:24 40.72302 -73.43824 3154 ft 357 kts 23°
2026-05-05 01:24 40.74575 -73.42857 2999 ft 331 kts
2026-05-05 01:24 40.76724 -73.43256 3002 ft 298 kts 334°
2026-05-05 01:24 40.78439 -73.44532 3006 ft 271 kts 316°
2026-05-05 01:25 40.79605 -73.46302 3007 ft 244 kts 299°
2026-05-05 01:25 40.80208 -73.47512 3007 ft 232 kts 297°
2026-05-05 01:25 40.81039 -73.49247 3004 ft 215 kts 295°
2026-05-05 01:25 40.81700 -73.50972 3007 ft 207 kts 282°
2026-05-05 01:26 40.81792 -73.52811 3004 ft 200 kts 256°
2026-05-05 01:26 40.81462 -73.54593 3005 ft 200 kts 253°
2026-05-05 01:26 40.81118 -73.56367 3002 ft 199 kts 253°
2026-05-05 01:26 40.80772 -73.58138 3000 ft 199 kts 253°
2026-05-05 01:27 40.80430 -73.59906 3000 ft 198 kts 253°
2026-05-05 01:27 40.80088 -73.61659 2998 ft 197 kts 251°
2026-05-05 01:27 40.79513 -73.63243 3000 ft 189 kts 233°
2026-05-05 01:27 40.78582 -73.64450 2979 ft 189 kts 216°
2026-05-05 01:28 40.77460 -73.65342 2888 ft 186 kts 213°
2026-05-05 01:28 40.76368 -73.66198 2705 ft 179 kts 213°
2026-05-05 01:28 40.75320 -73.67021 2484 ft 172 kts 213°
2026-05-05 01:28 40.74312 -73.67812 2248 ft 165 kts 213°
2026-05-05 01:29 40.73334 -73.68581 2035 ft 163 kts 212°
2026-05-05 01:29 40.72373 -73.69335 1823 ft 163 kts 212°
2026-05-05 01:29 40.71402 -73.70096 1614 ft 162 kts 212°
2026-05-05 01:29 40.70441 -73.70850 1383 ft 158 kts 211°
2026-05-05 01:30 40.69553 -73.71546 1180 ft 139 kts 210°
2026-05-05 01:30 40.68747 -73.72177 1025 ft 132 kts 210°
2026-05-05 01:30 40.67965 -73.72790 843 ft 129 kts 209°
2026-05-05 01:30 40.67201 -73.73389 668 ft 127 kts 208°
2026-05-05 01:31 40.66445 -73.73984 539 ft 126 kts 208°
2026-05-05 01:31 40.65693 -73.74571 338 ft 126 kts 206°
2026-05-05 01:31 40.64936 -73.75146 176 ft 126 kts 208°
2026-05-05 01:31 40.64197 -73.75741 50 ft 118 kts 209°
2026-05-05 01:32 40.63562 -73.76239 24 ft 90 kts 205°
2026-05-05 01:32 40.63169 -73.76535 21 ft 40 kts 210°
2026-05-05 01:32 40.62996 -73.76746 21 ft 31 kts 238°
2026-05-05 01:32 40.62927 -73.76950 21 ft 20 kts 288°
2026-05-05 01:33 40.62989 -73.77104 21 ft 19 kts 298°
2026-05-05 01:33 40.63054 -73.77247 21 ft 18 kts 299°
2026-05-05 01:33 40.63115 -73.77386 22 ft 17 kts 302°
2026-05-05 01:33 40.63175 -73.77511 22 ft 15 kts 301°
2026-05-05 01:34 40.63225 -73.77623 23 ft 13 kts 300°
2026-05-05 01:34 40.63268 -73.77720 24 ft 12 kts 301°
2026-05-05 01:34 40.63309 -73.77809 23 ft 11 kts 301°
2026-05-05 01:34 40.63352 -73.77901 21 ft 12 kts 300°
2026-05-05 01:35 40.63393 -73.77997 21 ft 12 kts 298°
2026-05-05 01:35 40.63435 -73.78098 21 ft 15 kts 298°
2026-05-05 01:35 40.63486 -73.78211 21 ft 14 kts 301°
2026-05-05 01:35 40.63534 -73.78316 21 ft 13 kts 301°
2026-05-05 01:36 40.63577 -73.78410 21 ft 11 kts 301°
2026-05-05 01:36 40.63616 -73.78495 21 ft 10 kts 301°
2026-05-05 01:36 40.63663 -73.78600 21 ft 21 kts 300°
2026-05-05 01:36 40.63770 -73.78839 21 ft 34 kts 302°
2026-05-05 01:37 40.63889 -73.79112 21 ft 35 kts 298°
2026-05-05 01:37 40.64006 -73.79361 21 ft 30 kts 300°
2026-05-05 01:37 40.64134 -73.79504 21 ft 25 kts 357°
2026-05-05 01:37 40.64304 -73.79496 20 ft 24 kts
2026-05-05 01:38 40.64464 -73.79493 20 ft 22 kts 355°
2026-05-05 01:38 40.64610 -73.79534 20 ft 21 kts 331°
2026-05-05 01:38 40.64703 -73.79624 19 ft 11 kts 326°
2026-05-05 01:38 40.64757 -73.79589 18 ft 10 kts 63°
2026-05-05 01:39 40.64798 -73.79489 18 ft 14 kts 61°
2026-05-05 01:39 40.64841 -73.79387 18 ft 12 kts 61°
2026-05-05 01:39 40.64856 -73.79376 19 ft 3 kts 343°
2026-05-05 01:39 40.64888 -73.79399 18 ft 0 kts 331°
2026-05-05 01:40 40.64902 -73.79409 18 ft 5 kts 331°
2026-05-05 01:40 40.64904 -73.79410 18 ft 0 kts 331°
2026-05-05 01:41 40.64905 -73.79410 18 ft 0 kts 339°